Wind_Speed
16 16 20 21 21 18 19 10 12 7 8 11 13 15 21 27 29 34 33 37 44 42 36 34 31 27 16 39 29 34 22 28 34 33 32 36 32 36 38 35 22 35 38 43
15 18 18 13 13 22 22 23 15 11 12 18 20 21 25 31 34 35 37 36 34 30 39 40 40 18 21 25 27 29 35 38 38 36 36 42 46 41 37 33 43 48 40 57
14 18 17 17 17 15 12 13 13 17 14 21 23 25 31 31 35 39 37 39 36 33 38 33 29 26 27 25 25 23 32 33 37 43 41 50 45 44 44 43 50 60 54 54
17 18 18 15 10 11 2 13 11 8 19 23 23 26 30 31 35 39 37 32 27 26 27 26 26 29 27 28 26 27 30 33 40 45 48 47 45 45 43 48 52 66 61 45
10 15 16 16 17 15 21 17 12 12 19 24 20 24 27 27 29 25 23 23 25 19 21 24 25 24 28 31 33 35 39 42 41 41 37 33 32 34 37 39 40 42 46 52
2 5 11 13 16 20 22 24 27 27 31 29 30 28 29 30 28 26 19 17 15 14 17 22 24 26 30 32 36 37 40 41 36 34 37 39 39 40 41 43 45 49 54 56
10 8 18 29 25 19 23 19 26 36 39 37 37 39 30 28 31 26 16 16 13 14 18 19 22 25 29 30 33 36 37 34 33 36 39 39 40 43 45 47 50 52 55 57
15 21 21 29 33 32 32 28 35 38 41 30 33 36 31 26 35 23 22 15 12 20 21 20 22 26 29 31 34 36 36 34 33 34 38 42 46 50 49 50 51 54 58 61
27 27 25 32 32 37 38 39 39 37 35 30 25 29 24 28 13 20 20 19 17 22 20 20 21 26 30 31 33 35 34 34 35 38 41 43 45 47 50 51 53 58 64 71
27 27 21 27 35 31 29 33 34 25 30 30 31 32 36 22 21 18 22 19 18 20 19 20 21 26 28 31 34 34 34 35 34 35 38 42 46 50 52 52 58 64 66 55
26 31 29 25 28 26 28 26 28 27 23 31 34 26 12 15 22 17 21 16 17 19 18 18 21 25 27 31 35 35 32 33 34 36 40 44 48 50 48 55 60 63 60 58
31 30 29 31 24 26 29 15 16 20 22 22 23 11 19 21 21 19 15 18 18 19 20 20 23 24 26 31 34 34 33 35 37 40 41 44 48 47 47 52 59 64 64 60
32 32 34 24 21 22 22 20 26 26 21 16 17 12 20 20 16 20 20 24 20 19 21 22 25 27 28 30 34 34 35 37 38 39 40 43 46 44 45 49 59 68 67 59
34 32 32 32 21 23 23 24 18 24 18 18 13 14 15 14 15 21 21 21 19 18 21 23 25 27 26 29 31 32 33 36 37 39 39 41 45 43 43 48 55 68 66 56
36 34 41 27 22 23 22 15 11 15 20 19 16 12 16 17 19 21 20 20 18 16 19 20 23 26 23 26 28 29 32 35 38 37 37 40 43 43 42 47 52 59 60 52
30 33 33 23 23 31 22 13 18 22 29 29 24 17 18 19 19 22 20 19 22 20 21 21 22 24 23 24 25 27 30 34 37 38 39 38 41 42 41 43 47 50 53 50
19 20 25 19 22 26 27 23 24 22 25 23 27 22 21 21 20 21 19 18 20 21 23 22 23 24 23 23 24 26 29 32 35 37 39 39 39 39 38 38 40 44 48 51
22 29 21 15 18 20 23 21 21 26 22 29 27 18 23 25 25 22 21 20 20 22 24 24 23 24 24 23 24 26 28 30 33 35 37 39 39 39 36 33 35 36 41 43
19 17 15 18 18 13 21 21 18 21 25 23 18 22 22 22 24 25 25 26 22 22 25 26 24 24 26 26 26 26 28 29 30 32 34 35 37 38 36 32 29 31 32 34
12 12 18 12 14 12 15 15 28 24 20 14 17 20 21 22 22 25 25 20 20 24 26 27 26 26 26 27 27 27 27 28 29 29 30 33 33 34 35 32 28 27 27 26
18 16 16 18 12 5 11 12 12 14 5 18 20 24 25 24 26 26 23 22 24 28 32 32 30 31 29 29 29 29 29 29 29 29 28 29 31 31 32 32 28 24 24 23
16 9 12 15 10 8 12 13 12 14 21 20 20 21 23 24 27 27 24 23 25 30 34 34 34 33 33 30 30 30 30 31 30 30 28 27 27 28 29 29 29 26 22 21
15 12 15 7 10 12 15 16 17 17 20 22 22 22 24 27 28 28 29 33 37 37 34 34 34 34 33 33 32 31 32 32 31 30 30 28 27 26 26 27 27 27 24 21
18 17 14 5 12 15 14 14 16 16 20 23 27 28 29 29 31 33 35 35 34 36 36 40 40 38 35 33 32 32 33 32 32 29 30 29 28 27 25 26 26 25 26 25
15 14 13 7 23 19 19 26 25 26 24 22 27 30 32 33 34 34 36 38 38 38 39 38 34 33 32 33 32 34 36 35 33 32 30 31 29 28 27 26 26 26 25 25
16 14 15 27 25 18 25 29 23 15 15 32 35 29 30 34 35 36 37 38 39 41 42 38 34 31 31 34 36 37 38 37 35 33 32 31 31 29 29 28 27 27 28 27
Wind_Direction
204 221 232 240 248 259 265 252 214 256 320 296 305 309 309 307 310 316 313 323 317 316 327 331 344 339 327 325 303 294 344 347 343 330 319 313 311 305 308 300 292 278 300 310
226 230 241 224 228 244 282 214 234 213 283 284 304 293 291 293 297 301 312 320 323 312 335 325 344 336 349 350 334 330 335 331 331 332 320 318 315 311 301 291 281 287 292 314
224 243 249 244 245 288 331 295 277 265 278 280 276 282 288 293 301 306 308 310 307 309 314 322 339 354 351 5 354 338 333 331 328 322 317 317 312 309 297 286 287 291 302 310
246 248 269 292 254 352 314 326 298 263 253 260 266 273 275 286 292 300 303 309 303 298 310 323 337 339 345 348 350 331 337 321 318 321 321 322 314 310 302 301 294 289 303 302
238 257 276 308 334 324 302 308 288 251 265 273 280 282 286 292 305 298 305 299 301 303 307 323 335 338 342 342 340 341 334 327 324 327 327 334 331 329 321 316 308 305 308 307
244 286 306 297 297 280 286 306 304 295 285 288 288 284 287 299 302 289 287 286 302 304 319 330 334 339 341 342 340 336 329 327 331 332 330 329 330 327 321 317 316 314 314 309
262 269 278 284 282 276 292 283 279 283 291 279 284 283 287 301 307 282 294 310 312 329 335 337 333 334 336 336 334 331 327 330 329 332 332 330 327 326 325 323 320 317 312 309
274 278 267 282 281 283 279 271 273 283 291 283 279 278 284 291 309 301 304 307 327 340 336 331 329 332 334 335 334 335 333 333 333 332 332 333 333 332 326 320 318 317 314 313
280 293 298 274 260 266 271 276 289 271 288 299 292 266 277 305 313 292 326 300 314 320 324 323 329 331 332 332 333 333 333 336 339 339 337 336 332 329 328 326 327 323 321 323
293 288 298 296 291 292 291 284 285 274 292 302 280 286 293 277 301 286 307 324 308 315 319 327 329 328 327 329 339 338 336 338 338 337 338 338 337 335 334 333 333 330 328 329
289 281 293 283 294 297 299 291 286 276 290 291 280 282 306 280 283 289 309 309 314 314 313 322 325 329 329 335 341 343 340 336 340 343 340 340 342 339 336 339 337 331 336 336
293 295 294 292 298 299 297 301 289 276 276 289 295 294 282 282 303 310 301 314 311 304 313 327 331 331 338 336 341 341 344 344 348 344 343 342 344 340 340 339 339 340 337 339
299 297 312 297 284 289 285 268 276 265 271 274 288 294 290 291 313 310 298 303 304 307 316 325 335 338 340 338 341 346 347 346 348 345 344 345 345 341 341 339 341 347 345 346
306 301 288 302 273 267 267 271 239 250 254 264 285 294 292 306 313 298 295 298 296 308 318 328 331 334 336 338 339 347 349 351 349 348 346 346 346 343 341 342 346 348 352 349
293 296 290 279 278 271 271 255 284 272 284 274 291 311 315 298 291 285 289 291 291 299 307 321 331 327 331 334 338 349 355 358 357 350 349 350 348 343 342 348 351 353 357 353
299 290 291 287 273 275 266 257 266 256 269 259 272 293 297 297 284 290 290 292 288 298 312 316 322 325 327 330 336 347 351 356 358 354 352 350 349 347 346 350 353 1 1 1
305 296 305 280 259 261 269 257 257 256 264 260 268 277 290 288 289 292 285 287 286 297 302 311 317 323 321 323 330 337 342 350 355 355 353 351 351 350 348 352 354 3 5 11
306 306 310 268 287 277 253 251 251 243 266 272 265 271 288 298 299 295 291 288 282 284 294 302 311 318 320 314 321 327 334 341 346 353 354 351 351 352 349 353 354 0 5 15
334 324 307 291 268 259 237 257 252 246 268 260 284 282 295 293 295 297 292 290 280 280 288 296 307 312 312 312 310 316 324 332 339 346 350 352 351 351 349 348 352 1 3 13
342 354 338 315 261 209 225 272 262 251 252 269 291 290 290 289 289 288 292 287 279 284 289 295 300 302 301 304 307 309 316 323 329 336 343 348 349 348 349 346 348 358 3 7
342 12 359 357 344 303 290 285 321 265 244 314 291 296 298 296 296 292 288 288 292 293 295 297 296 304 295 297 303 306 311 314 320 326 333 340 344 346 345 345 342 348 354 1
347 356 1 351 5 328 306 305 292 280 285 294 290 287 284 287 281 280 278 278 283 290 294 294 290 297 295 291 296 301 302 305 310 316 322 328 336 341 339 341 338 334 341 350
337 322 314 316 311 313 309 306 304 302 300 297 296 294 289 288 288 288 291 294 296 298 295 294 292 285 291 285 290 292 294 300 303 307 311 318 323 331 332 332 335 329 325 329
333 330 319 291 346 328 321 321 315 318 309 306 302 298 293 287 284 286 292 298 300 300 299 297 289 287 289 280 283 287 288 290 294 300 305 310 314 318 323 323 323 325 321 314
329 309 318 310 325 324 328 332 323 309 307 314 308 304 300 294 287 284 288 290 292 297 294 299 292 283 279 274 276 282 283 285 291 296 300 303 305 307 311 314 313 313 315 312
332 312 303 325 310 309 324 321 319 307 316 323 311 308 312 308 301 297 296 296 293 295 299 298 296 288 278 273 274 276 279 285 289 292 294 296 298 300 301 304 305 303 303 303
Height
5895 5896 5894 5894 5894 5896 5896 5898 5897 5896 5893 5889 5887 5885 5885 5883 5883 5882 5884 5882 5874 5866 5858 5851 5850 5847 5846 5842 5833 5830 5827 5829 5829 5823 5818 5813 5807 5800 5795 5789 5784 5780 5775 5770
5893 5892 5892 5892 5893 5894 5893 5889 5890 5892 5893 5886 5883 5883 5881 5881 5880 5877 5877 5875 5870 5865 5852 5846 5844 5840 5842 5835 5832 5828 5826 5822 5818 5814 5811 5805 5797 5792 5786 5783 5778 5771 5763 5759
5889 5889 5889 5890 5891 5890 5887 5888 5889 5890 5888 5886 5884 5881 5878 5879 5877 5874 5869 5866 5866 5859 5854 5848 5843 5840 5835 5831 5830 5828 5825 5818 5813 5808 5803 5795 5789 5784 5779 5774 5770 5763 5753 5747
5886 5888 5888 5889 5884 5885 5885 5887 5885 5884 5884 5884 5882 5879 5878 5876 5872 5868 5863 5865 5861 5857 5853 5845 5841 5835 5831 5829 5827 5825 5816 5812 5807 5800 5793 5785 5778 5774 5771 5764 5759 5752 5746 5739
5885 5884 5886 5884 5884 5884 5883 5882 5881 5880 5878 5876 5877 5874 5871 5870 5867 5862 5860 5861 5859 5855 5851 5844 5838 5833 5829 5826 5821 5814 5810 5804 5799 5792 5785 5777 5771 5765 5759 5753 5747 5742 5734 5727
5881 5881 5880 5880 5880 5878 5876 5875 5874 5874 5872 5870 5869 5868 5866 5864 5861 5856 5855 5856 5853 5850 5845 5840 5834 5830 5826 5821 5815 5811 5806 5799 5791 5785 5779 5774 5765 5759 5753 5746 5737 5729 5721 5712
5879 5878 5878 5874 5873 5874 5871 5870 5868 5867 5866 5865 5863 5861 5861 5859 5855 5848 5852 5851 5848 5844 5841 5836 5832 5828 5824 5819 5814 5807 5801 5794 5788 5781 5774 5768 5762 5755 5746 5735 5727 5719 5711 5701
5875 5876 5875 5872 5869 5868 5867 5867 5865 5860 5858 5858 5858 5855 5856 5854 5847 5844 5847 5846 5841 5839 5836 5831 5827 5823 5818 5813 5809 5803 5796 5789 5783 5777 5770 5760 5751 5741 5735 5729 5720 5710 5699 5688
5868 5868 5869 5866 5865 5864 5860 5860 5859 5855 5851 5850 5852 5850 5849 5848 5841 5841 5839 5835 5835 5834 5831 5827 5823 5819 5815 5811 5806 5798 5791 5784 5775 5767 5760 5752 5746 5738 5729 5718 5707 5695 5681 5667
5864 5862 5864 5860 5857 5858 5856 5853 5852 5849 5844 5843 5844 5842 5839 5840 5838 5837 5833 5831 5829 5829 5827 5824 5820 5817 5811 5806 5799 5792 5783 5777 5770 5764 5756 5748 5740 5730 5718 5707 5696 5681 5666 5651
5860 5856 5858 5853 5851 5849 5848 5845 5843 5843 5840 5838 5835 5836 5835 5834 5833 5833 5829 5827 5826 5824 5822 5821 5817 5812 5806 5799 5793 5787 5781 5773 5765 5757 5750 5742 5733 5722 5711 5699 5688 5673 5656 5639
5854 5851 5849 5845 5843 5843 5838 5835 5836 5836 5836 5833 5830 5830 5832 5830 5828 5825 5822 5822 5821 5819 5816 5814 5811 5808 5801 5795 5790 5783 5775 5767 5757 5751 5745 5737 5728 5717 5708 5698 5685 5668 5650 5630
5846 5843 5839 5838 5837 5836 5834 5833 5832 5831 5830 5831 5827 5830 5827 5826 5824 5820 5818 5818 5815 5813 5810 5807 5802 5798 5794 5790 5784 5776 5769 5762 5756 5749 5742 5733 5724 5715 5706 5695 5681 5661 5643 5622
5838 5838 5834 5832 5828 5827 5829 5827 5825 5824 5825 5824 5823 5824 5822 5820 5819 5816 5816 5815 5812 5808 5803 5801 5798 5794 5791 5788 5781 5774 5768 5760 5753 5746 5739 5731 5722 5713 5704 5693 5676 5659 5642 5626
5829 5828 5826 5824 5820 5821 5821 5821 5818 5821 5821 5816 5820 5819 5818 5816 5815 5813 5811 5810 5808 5807 5804 5801 5796 5792 5789 5785 5780 5772 5765 5758 5750 5743 5736 5727 5719 5710 5702 5690 5677 5662 5646 5631
5820 5817 5814 5814 5813 5814 5819 5814 5815 5814 5813 5813 5814 5814 5814 5813 5810 5809 5806 5804 5801 5800 5797 5796 5792 5788 5784 5780 5775 5769 5763 5755 5748 5741 5733 5725 5717 5708 5699 5689 5678 5666 5653 5637
5811 5808 5806 5806 5807 5809 5813 5810 5809 5808 5807 5809 5808 5810 5810 5808 5806 5804 5801 5799 5796 5794 5792 5790 5786 5782 5778 5775 5770 5765 5760 5753 5746 5739 5731 5724 5715 5707 5698 5690 5680 5669 5659 5645
5806 5804 5802 5802 5804 5805 5803 5801 5800 5801 5802 5803 5804 5805 5803 5800 5797 5797 5795 5793 5791 5789 5786 5784 5782 5777 5773 5770 5766 5761 5756 5750 5744 5736 5729 5722 5714 5706 5697 5690 5682 5672 5663 5652
5803 5800 5800 5798 5797 5798 5797 5796 5798 5798 5799 5799 5798 5798 5796 5793 5791 5789 5788 5787 5785 5783 5780 5777 5775 5771 5767 5764 5760 5756 5750 5745 5739 5733 5727 5720 5712 5704 5696 5690 5683 5674 5667 5658
5804 5801 5798 5793 5790 5792 5796 5795 5792 5791 5795 5795 5795 5793 5793 5790 5787 5784 5782 5779 5778 5777 5773 5771 5768 5764 5762 5758 5753 5749 5745 5740 5735 5729 5724 5717 5710 5703 5695 5688 5682 5675 5669 5662
5801 5797 5794 5792 5790 5791 5791 5790 5790 5791 5793 5790 5789 5788 5785 5783 5781 5777 5775 5772 5770 5769 5765 5762 5759 5756 5753 5750 5746 5742 5737 5733 5729 5724 5719 5714 5707 5701 5694 5686 5679 5674 5669 5664
5798 5795 5793 5791 5791 5792 5789 5789 5790 5789 5786 5784 5783 5781 5780 5777 5774 5770 5769 5767 5764 5762 5759 5755 5752 5748 5743 5741 5738 5734 5730 5726 5722 5717 5713 5709 5704 5697 5691 5684 5677 5672 5668 5663
5798 5796 5794 5793 5791 5789 5787 5785 5784 5783 5781 5778 5775 5774 5771 5768 5765 5762 5759 5757 5754 5751 5747 5745 5742 5738 5735 5731 5728 5726 5723 5719 5714 5710 5706 5702 5697 5692 5687 5681 5675 5669 5665 5662
5794 5793 5792 5792 5789 5787 5785 5783 5780 5777 5773 5771 5769 5766 5764 5761 5758 5755 5752 5748 5744 5740 5736 5733 5730 5727 5725 5723 5721 5717 5714 5710 5706 5702 5698 5694 5690 5686 5681 5676 5671 5667 5662 5658
5793 5789 5787 5784 5785 5782 5781 5779 5777 5772 5769 5767 5763 5759 5756 5753 5749 5746 5742 5739 5735 5731 5727 5722 5717 5714 5712 5711 5709 5706 5702 5699 5696 5692 5688 5685 5682 5678 5674 5671 5666 5662 5658 5654
5788 5785 5783 5780 5779 5778 5776 5772 5768 5765 5761 5759 5755 5752 5749 5744 5740 5736 5733 5729 5724 5720 5714 5712 5708 5703 5701 5698 5696 5693 5689 5686 5684 5681 5678 5675 5672 5669 5666 5663 5659 5655 5652 5649